Location: Bijele Vode
(45.2833°N, 16.2000°E)
Time: 05:37:31
(UTC+00:00)

KAITUO 1B - Visible Passes

Search period start: 05 December 2021 00:00
Search period end: 15 December 2021 00:00
Orbit: 490 x 506 km, 97.4° (Epoch: 04 December)

Date Brightness Start Highest point End Pass type
(mag) Time Alt. Az. Time Alt. Az. Time Alt. Az.
05 Dec ? 04:33:21 10° NE 04:35:52 17° E 04:38:19 10° SE visible
05 Dec ? 16:45:27 10° S 16:49:06 63° W 16:52:48 10° NNW visible
06 Dec ? 05:45:50 10° N 05:49:31 62° WNW 05:53:10 10° SSW visible
06 Dec ? 16:25:11 10° SSE 16:28:51 73° ENE 16:32:35 10° N visible
07 Dec ? 05:25:34 10° NNE 05:29:17 73° E 05:32:57 10° S visible
07 Dec ? 16:05:11 10° SE 16:08:39 40° ENE 16:12:11 10° N visible
07 Dec ? 17:40:22 10° SW 17:42:34 15° W 17:44:47 10° NW visible
08 Dec ? 05:05:28 10° NNE 05:08:59 40° E 05:12:28 10° S visible
08 Dec ? 15:45:29 10° ESE 15:48:31 24° ENE 15:51:35 10° NNE visible
08 Dec ? 17:19:03 10° SSW 17:22:09 25° W 17:25:17 10° NW visible
09 Dec ? 04:45:36 10° NE 04:48:37 23° E 04:51:37 10° SSE visible
09 Dec ? 16:58:15 10° S 17:01:47 43° W 17:05:22 10° NNW visible
10 Dec ? 04:26:12 10° ENE 04:28:11 14° E 04:30:10 10° ESE visible
10 Dec ? 16:37:46 10° S 16:41:28 79° WSW 16:45:13 10° NNW visible
11 Dec ? 05:38:10 10° N 05:41:54 78° WNW 05:45:33 10° SSW visible
11 Dec ? 16:17:34 10° SSE 16:21:13 58° ENE 16:24:54 10° N visible
11 Dec ? 17:54:19 10° WSW 17:55:17 11° W 17:56:15 10° WNW visible
12 Dec ? 05:17:56 10° NNE 05:21:36 57° E 05:25:12 10° S visible
12 Dec ? 15:57:39 10° SE 16:01:00 33° ENE 16:04:23 10° N visible
12 Dec ? 17:32:10 10° SW 17:34:48 18° W 17:37:27 10° NW visible
13 Dec ? 04:57:52 10° NNE 05:01:14 32° E 05:04:33 10° SSE visible
13 Dec ? 17:11:03 10° SSW 17:14:22 31° W 17:17:42 10° NNW visible
14 Dec ? 04:38:06 10° NE 04:40:48 19° E 04:43:28 10° SE visible
14 Dec ? 16:50:21 10° S 16:53:59 54° W 16:57:39 10° NNW visible
